Location: Cisewo
(53.3833°N, 14.9000°E)
Time: 03:24:06
(UTC+00:00)

BEESAT 3 - Pass Details

Date: 02 October 2021
Orbit: 481 x 510 km, 64.9° (Epoch: 16 October)

Event Time Altitude Azimuth Distance (km) Brightness Sun altitude
Rises 19:59:06 0° 314° (NW) 2,621 ? -29.5°
Reaches altitude 10° 20:01:16 10° 312° (NW) 1,735 ? -29.8°
Enters shadow 20:03:00 25° 307° (NW) 1,063 ? -30.0°
